Showing default

FLOCK 4BE 32, 60497

Orbit data source: Space-Track

FLOCK 4BE 32, 60497 is a payload satellite owned by Planet (US) in SSO that was launched on Fri, 16 Aug 2024 UTC via an FALCON 9 launch vehicle from the Air Force Western Test Range (AFWTR). Payload-class satellites include a variety of spacecraft equipped with specific instruments for various scientific and technological missions. These include communications satellites like Starlink; space stations such as the ISS; scientific satellites like the Hubble; Earth observation satellites from companies like Planet Labs, Umbra, and HawkEye 360; GPS; miniature CubeSats for education and research; and military/defense satellites.

Loading next visibility...
Identifier
60497, 2024-149AF
Orbit
SSO
Country
Flag of USUS
Related business
Manufacturer
Planet
Mission
Operational Commercial Imaging
Bus & Motor
CUBESAT 3U, Unknown motor
Mass
5.7 kg wet, 5.7 kg dry
Launch date (UTC)
2024-08-16 (2 years ago)
Launch vehicle
FALCON 9
Launch site
Air Force Western Test Range (AFWTR)
Object type
Payload
Rocket body
Debris
Shape & HBR
Box + 2 Pan, 1.0 m
Radar Cross Section
0.072 m², Medium (>0.1 m² and < 1m²)

Expand to show TLE details & history
Last TLE update: 8 hours ago

TLE from 8 hours ago
0 FLOCK 4BE 32
1 60497U 24149AF  26125.21177969  .00025167  00000-0  61640-3 0  9995
2 60497  97.3716 208.7250 0004897  84.7656 275.4150 15.40731067 95719
Epoch: 2026-05-05T05:04Z
TLE epoch observation values (Epoch: 2026-05-05T05:04:57.765Z)
Latitude
0.00008°
Longitude
-90.60557°
Altitude
446.756 km
Speed
7.644 km/s
True Right ascension
13h 54m 53s
True Declination
0° 00' 00"
Sunlit
Object was in full shadow at epoch
Visualization orbit readout
Latitude
Unknown
Longitude
Unknown
Altitude
Unknown
Speed
Unknown
Apparent Right ascension
Unknown
Apparent Declination
Unknown
Sunlit
N/A
Visualization observer readout
Local Sidereal Time
20:29:26
Azimuth
Unknown
Elevation
Unknown
Doppler factor
Unknown
Orbital elements
Apogee altitude
444.226 km
Perigee altitude
437.548 km
Semi-major axis
6,819.024 km
Eccentricity
0.00049
Inclination
97.3716°
RAAN
208.725°
Arg. of periapsis
84.7656°
True anomaly
275.35913°
Mean anomaly
275.415°
Eccentric anomaly
275.38707°
Mean motion
3.85443 °/min
Orbital period
93.4 mins
BSTAR
0.0006164
Loading maneuver chart data...
Computing Atmospheric mass density...
Loading historical data...
Loading historical data...
Loading historical data...
Loading historical data...
Loading historical data...
Loading historical data...
Loading historical data...

Documentation

Showing up to 5 results
|